Regional Weather Roundup
Issued by NWS

Home | Current Version | Previous Version | Graphics & Text | Print | Product List | Glossary On
Versions: 1 2 3 4 5 6 7 8 9 10 11 12 13 14 15 16 17 18 19 20 21 22 23 24 25 26 27 28 29 30 31 32 33 34 35 36 37 38 39 40 41 42 43 44 45 46 47 48 49 50
000
ASUS43 KMKX 301500
RWRWI

WISCONSIN REGIONAL WEATHER ROUNDUP
NATIONAL WEATHER SERVICE MILWAUKEE/SULLIVAN WI
1000 AM CDT SAT APR 30 2016

NOTE: "FAIR" INDICATES FEW OR NO CLOUDS BELOW 12,000 FEET WITH NO
SIGNIFICANT WEATHER AND/OR OBSTRUCTIONS TO VISIBILITY.

WIZ001-002-006>008-014>016-023>028-301600-
NORTHWEST WISCONSIN

CITY           SKY/WX    TMP DP  RH WIND       PRES   REMARKS
SUPERIOR ARPT  SUNNY     43  35  72 NE20      30.26S
ASHLAND        CLOUDY    47  37  68 NE17      30.26R
HAYWARD        CLOUDY    50  30  46 E18       30.19S
SIREN          PTSUNNY   48  31  53 E13       30.16F
CUMBERLAND     CLOUDY    46  32  57 NE14      30.14S
RICE LAKE      CLOUDY    47  32  55 N10       30.15F
CHETEK         CLOUDY    46  33  59 E7        30.15S
LADYSMITH      CLOUDY    48  33  54 NE12      30.16S
EAU CLAIRE     NOT AVBL
MENOMONIE      CLOUDY    47  33  57 NE9       30.11F
NEW RICHMOND   CLOUDY    47  32  56 NE15      30.11F
OSCEOLA        MOSUNNY   49  34  55 NE12G17   30.15F
$$

WIZ003>005-009-010-017-018-301600-
NORTH CENTRAL WISCONSIN

CITY           SKY/WX    TMP DP  RH WIND       PRES   REMARKS
MANITOWISH WTR MOSUNNY   47  32  56 NE8       30.20R
ARBOR VITAE    PTSUNNY   49  32  51 NE8       30.19S
WOODRUFF       PTSUNNY   49  32  51 NE8       30.19S
RHINELANDER    CLOUDY    48  31  51 E9        30.18S
EAGLE RIVER    CLOUDY    49  29  47 NE10      30.18S
LAND O LAKES   CLOUDY    49  30  49 NE9       30.20S
PHILLIPS       CLOUDY    48  32  53 E14       30.16F
TOMAHAWK       CLOUDY    47  31  54 NE8       30.17S
MEDFORD        CLOUDY    46  33  59 E8        30.13S
MERRILL        CLOUDY    50  33  51 E13       30.15S
$$

WIZ029-030-035-036-043>047-301600-
CENTRAL WISCONSIN

CITY           SKY/WX    TMP DP  RH WIND       PRES   REMARKS
WAUSAU         CLOUDY    52  32  46 NE9G18    30.11F
MOSINEE        SUNNY     46  32  57 E14G21    30.13F
MARSHFIELD     CLOUDY    48  33  56 E15       30.10S
STEVENS POINT  CLOUDY    44  32  61 NE14      30.13S
WAUPACA        CLOUDY    48  36  63 NE8       30.14R
WAUTOMA        NOT AVBL
WISC RAPIDS    CLOUDY    48  31  51 E14G22    30.11F
CAMP DOUGLAS   NOT AVBL
$$

WIZ011>013-019>022-031-037>040-048>050-301600-
NORTHEAST WISCONSIN

CITY           SKY/WX    TMP DP  RH WIND       PRES   REMARKS
ANTIGO         CLOUDY    48  31  52 E12       30.15S
SHAWANO        PTSUNNY   50  36  58 NE10      30.16S
OCONTO         CLOUDY    47  36  66 E8        30.17S
STURGEON BAY   CLOUDY    46  34  61 NE10      30.19F
GREEN BAY      PTSUNNY   48  40  73 NE12      30.16R
MANITOWOC      NOT AVBL
APPLETON       PTSUNNY   46  34  61 NE12G17   30.12R
CLINTONVILLE   PTSUNNY   46  34  61 E10       30.15R
OSHKOSH        PTSUNNY   48  38  68 E13       30.11S
$$

WIZ032>034-041-042-053>061-301600-
SOUTHWEST WISCONSIN

CITY           SKY/WX    TMP DP  RH WIND       PRES   REMARKS
LA CROSSE      CLOUDY    47  32  56 E9        30.05F
SPARTA         CLOUDY    46  35  67 NE7       30.07F
VIROQUA        CLOUDY    44  34  68 E14       30.03S
BOSCOBEL       CLOUDY    49  36  61 E12G17    30.02S
PRAIRIE DU CHI CLOUDY    49  36  61 E12G21    29.99R
PLATTEVILLE    CLOUDY    46  42  85 E20       29.98F
$$

WIZ056-057-062-063-064-067-068-301600-
SOUTH CENTRAL WISCONSIN

CITY           SKY/WX    TMP DP  RH WIND       PRES   REMARKS
REEDSBURG      CLOUDY    44  34  68 E7        30.06F
BARABOO/DELLS  CLOUDY    46  33  62 E12       30.06F
LONE ROCK      NOT AVBL
MINERAL POINT  CLOUDY    46  39  76 E18       30.00F
MADISON        CLOUDY    47  38  71 E14       30.06F
MIDDLETON      CLOUDY    47  38  70 E13       30.06F
WATERTOWN      CLOUDY    47  40  79 E10       30.07S
MONROE         DRIZZLE   45  41  87 E13       30.01F
JANESVILLE     CLOUDY    48  43  81 E16       30.04R
$$

WIZ051-052-058>065-066-070>072-301600-
SOUTHEAST WISCONSIN

CITY           SKY/WX    TMP DP  RH WIND       PRES   REMARKS
MILWAUKEE      CLOUDY    45  39  79 E14       30.10R
WAUKESHA       CLOUDY    45  36  70 E5        30.10R
MILWAUKEE/TIMM CLOUDY    45  36  70 E8        30.11S
RACINE         CLOUDY    45  38  76 E13       30.10R
BURLINGTON     CLOUDY    46  39  78 E10G16    30.07R
KENOSHA        CLOUDY    45  39  79 E15       30.07S
FOND DU LAC    CLOUDY    50  39  66 E12       30.11R
SHEBOYGAN      PTSUNNY   48  38  68 E10       30.13R
WEST BEND      PTSUNNY   46  36  66 E12G18    30.10R
JUNEAU         PTSUNNY   46  38  74 E10       30.10R
$$

LSZ147-162-301600-
LAKE SUPERIOR

STATION/POSITION TIME  TEMP    WIND        PRES    WAVE
                       AIR SEA DIR/SP/G            HT/PER
                 (UTC) (F)     (DEG/KT/KT) (MB)    (FT/S)
W MID LAKE BUOY  1250   38 36   40/ 12/ 12 1026.3R   1/ 3
DEVILS ISLAND    1400   39      50/ 17/ 19 1026.1S
SAXON HARBOR     1400   39      40/ 11/ 14 1023.7
$$

LMZ867-665-643>646-301600-
LAKE MICHIGAN

STATION/POSITION TIME  TEMP    WIND        PRES    WAVE
                       AIR SEA DIR/SP/G            HT/PER
                 (UTC) (F)     (DEG/KT/KT) (MB)    (FT/S)
CHAMBERS ISLAND  1400   40      20/ 13/ 15 1022.4F
N MID LAKE BUOY  1250   39 38   50/ 10/ 12 1022.6R   1/ 3
NORTHPORT PIER   1400   45      40/  7/ 10 1022.4S
ALGOMA LAKESHORE 1415           40/ 14/ 16   N/A
KEWAUNEE LAKESHO 1400   42      30/  9/ 11 1020.6F
SHEBOYGAN LAKESH 1400   41      10/ 10/ 11 1021.0F
PORT WASHINGTON  1400   44      80/ 10/ 14 1020.3F
S MID LAKE BUOY  1250   42 40   90/ 10/ 12 1019.6R   1/ 3
KENOSHA   LAKESH 1400   43      90/ 15/ 18 1018.3F
$$

TC  - TEMPERATURE IN CELSIUS
VSB - VISIBILITY IN STATUTE MILES
WCI - WIND CHILL INDEX
HX  - HEAT INDEX





USA.gov is the U.S. government's official web portal to all federal, state and local government web resources and services.